www.pogodaiklimat.ru

Погода и климат >> Архив погоды >> Индия >> Thondi


ПОГОДА в Thondi

  • Прогноз погоды в Thondi
  • Монитор погоды в Thondi
  • Климат города

АРХИВ ПОГОДЫ в Thondi

Время (UTC), дата Ветер
(напр.,м/с)
 
Видим.   Явления Облачность Т
(С)
Тd
(С)
f
(%)
Тe
(С)
Тes
(С)
Комфортность P
(гПа)
Po
(гПа)
Тmin
(С)
Tmax
(С)
R
(мм)
R24
(мм)
S
(см)
12 17.04 В 2 10 км 6/1 600 м
[Cb cap Ci sp]
+32.0 +25.8 70 +47 +48 опасность
перегрева
1008.2 1007.6 +34.7
15 17.04 В 4 4000 м 4/1 600 м
[Cu Sc Ci sp]
+31.8 +28.0 80 +52 +52 опасность
перегрева
1010.3 1009.7
18 17.04 В 5 4000 м 4/1 600 м
[Cu Sc Ci sp]
+30.6 +27.0 81 +48 +48 опасность
перегрева
1010.6 1010.0
21 17.04 В 3 4000 м 3/1 600 м
[Cu Sc Ci sp]
+29.8 +27.0 85 +47 +47 опасность
перегрева
1010.1 1009.5
00 18.04 штиль 0 4000 м 8/4 600 м
[Sc Ac trans Ci sp]
+29.4 +26.9 86 +46 +46 опасность
перегрева
1010.3 1009.7
03 18.04 ЮВ 2 10 км 5/4 600 м
[Sc Ci sp]
+31.8 +26.5 74 +49 +53 опасность
перегрева
1012.4 1011.8 +26.5 +34.7
06 18.04 ЮВ 2 10 км 4/1 600 м
[Sc diur, vesp Ci fib]
+33.6 +26.1 65 +50 +67 опасность
перегрева
1012.6 1012.0
09 18.04 ЮВ 2 10 км 5/1 600 м
[Sc diur, vesp Ci sp]
+34.4 +26.4 63 +51 +65 опасность
перегрева
1008.5 1007.9
12 18.04 ЮВ 2 10 км 5/1 600 м
[Sc diur, vesp Ci sp]
+31.8 +25.9 71 +47 +48 опасность
перегрева
1008.0 1007.4 +34.8
15 18.04 Ю 4 4000 м 10/5 600 м
[Cu Sc Ac As]
+31.0 +26.8 78 +48 +48 опасность
перегрева
1010.4 1009.8
18 18.04 Ю 6 4000 м 8/5 600 м
[Sc Ci fib]
+30.6 +26.7 80 +48 +48 опасность
перегрева
1010.8 1010.2
21 18.04 Ю 5 4000 м 8/5 600 м
[Sc Ci fib]
+30.2 +28.0 88 +50 +50 опасность
перегрева
1009.4 1008.8
00 19.04 штиль 0 4000 м 8/5 600 м
[Cu Sc Ci sp]
+29.0 +26.5 86 +44 +44 опасность
перегрева
1008.8 1008.2
03 19.04 З 2 10 км 9/5 600 м
[Cu Sc Ac As]
+30.4 +26.8 81 +47 +49 опасность
перегрева
1010.6 1010.0 +28.3 +34.8
06 19.04 Ю 3 10 км 5/3 600 м
[Sc diur, vesp Ci sp]
+34.2 +27.4 68 +53 +66 опасность
перегрева
1010.1 1009.5
09 19.04 Ю 3 10 км 4/1 600 м
[Sc Ci sp]
+34.6 +26.9 64 +52 +63 опасность
перегрева
1007.2 1006.6
12 19.04 Ю 5 4000 м 4/1 600 м
[Cb calv Ci sp]
+32.0 +26.4 72 +48 +49 опасность
перегрева
1006.4 1005.8 +35.1
15 19.04 З 3 4000 м 4/1 600 м
[Cu Sc Ci sp]
+30.6 +27.0 81 +48 +48 опасность
перегрева
1008.2 1007.6
18 19.04 штиль 0 4000 м 3/1 600 м
[Cu Sc Ci sp]
+29.6 +26.0 81 +44 +44 опасность
перегрева
1009.1 1008.5
21 19.04 штиль 0 4000 м 3/1 600 м
[Cu Sc Ci sp]
+28.6 +26.1 86 +43 +43 опасность
перегрева
1007.6 1007.0
00 20.04 нст 1 4000 м 5/3 600 м
[Sc diur, vesp Ci sp]
+29.8 +27.6 88 +48 +48 опасность
перегрева
1007.5 1006.9
03 20.04 З 2 10 км 3/1 600 м
[Sc Ci sp]
+32.2 +27.8 78 +52 +59 опасность
перегрева
1010.0 1009.4 +28.1 +35.1
06 20.04 Ю 2 10 км 3/1 600 м
[Cb calv Ci sp]
+35.2 +28.2 67 +56 +74 опасность
перегрева
1010.0 1009.4
09 20.04 Ю 5 10 км 3/0
[Ci sp]
+33.8 +28.7 75 +57 +64 опасность
перегрева
1007.1 1006.5
12 20.04 Ю 6 10 км 3/0
[Ci sp]
+32.0 +28.5 82 +54 +54 опасность
перегрева
1006.1 1005.5 +35.3
15 20.04 Ю 4 4000 м 3/0
[Ci sp]
+30.8 +28.1 86 +51 +51 опасность
перегрева
1008.1 1007.5
18 20.04 штиль 0 4000 м 5/4 600 м
[Sc Ci sp]
+30.0 +27.9 89 +50 +50 опасность
перегрева
1008.9 1008.3
21 20.04 штиль 0 4000 м 6/4 600 м
[Sc Ci sp]
+30.0 +27.9 89 +50 +50 опасность
перегрева
1007.9 1007.3
00 21.04 штиль 0 4000 м 8/5 600 м
[Cu Sc Ci sp]
+28.6 +26.6 89 +44 +44 опасность
перегрева
1008.1 1007.5
03 21.04 Ю 2 10 км 4/3 600 м
[Sc Ci sp]
+32.4 +27.5 75 +51 +57 опасность
перегрева
1009.9 1009.3 +28.3 +35.3
06 21.04 Ю 3 10 км 5/3 600 м
[Sc diur, vesp Ci sp]
+35.2 +27.6 65 +55 +68 опасность
перегрева
1009.9 1009.3
09 21.04 Ю 3 10 км 1/1 600 м
[Sc diur, vesp]
+34.8 +27.4 66 +54 +66 опасность
перегрева
1006.7 1006.1
12 21.04 Ю 4 10 км 1/0 600 м
[Ci fib]
+32.0 +26.4 72 +48 +49 опасность
перегрева
1006.6 1006.0 +35.4
15 21.04 Ю 3 4000 м 1/0 600 м
[Ci fib]
+31.4 +26.7 76 +48 +48 опасность
перегрева
1008.9 1008.3
18 21.04 Ю 4 4000 м 1/0 600 м
[Ci fib]
+31.0 +27.7 83 +51 +51 опасность
перегрева
1009.7 1009.1
00 22.04 штиль 0 4000 м 3/1 600 м
[Cb calv Ci fib]
+28.4 +26.2 88 +43 +43 опасность
перегрева
1008.4 1007.8
03 22.04 ЮЗ 2 10 км 3/1 600 м
[Sc diur, vesp Ci fib]
+32.0 +26.4 72 +48 +55 опасность
перегрева
1010.3 1009.7 +28.2 +35.4
06 22.04 Ю 3 10 км 3/1 600 м
[Cu med, cong Ci sp]
+35.0 +26.7 62 +52 +69 опасность
перегрева
1009.6 1009.0
09 22.04 Ю 7 10 км 1/0
[Ci sp]
+34.4 +26.7 64 +52 +56 опасность
перегрева
1007.3 1006.7
12 22.04 Ю 6 10 км 3/0
[Ci sp]
+32.6 +26.8 72 +50 +51 опасность
перегрева
1006.2 1005.6 +35.6
15 22.04 Ю 4 4000 м 3/0
[Ci sp]
+31.2 +28.2 84 +52 +52 опасность
перегрева
1009.0 1008.4
18 22.04 Ю 2 4000 м 3/0
[Ci sp]
+30.8 +27.5 83 +50 +50 опасность
перегрева
1009.8 1009.2
21 22.04 штиль 0 4000 м 3/0
[Ci sp]
+29.2 +26.7 86 +45 +45 опасность
перегрева
1008.0 1007.4
00 23.04 нст 1 4000 м 3/1 600 м
[Sc Ci sp]
+29.6 +26.8 85 +46 +46 опасность
перегрева
1008.6 1008.0
03 23.04 нст 1 4000 м 3/0
[Ci sp]
+32.4 +27.2 74 +51 +59 опасность
перегрева
1010.5 1009.9 +28.2 +35.6
06 23.04 Ю 2 10 км 5/0
[Ci ing]
+36.4 +27.4 60 +55 +76 опасность
перегрева
1009.8 1009.2
09 23.04 Ю 2 10 км 5/0
[Ci ing]
+36.2 +24.7 52 +49 +64 опасность
перегрева
1006.7 1006.1
12 23.04 Ю 3 10 км 6/1 600 м
[Sc Ci sp]
+32.4 +25.7 68 +48 +48 опасность
перегрева
1006.4 1005.8 +36.6
15 23.04 Ю 2 4000 м 1/0
[Ci fib]
+31.6 +27.5 79 +51 +51 опасность
перегрева
1009.1 1008.5
18 23.04 штиль 0 4000 м 1/0
[Ci fib]
+30.6 +28.1 87 +51 +51 опасность
перегрева
1009.9 1009.3
21 23.04 штиль 0 4000 м 5/4 600 м
[Sc diur, vesp Ci fib]
+29.2 +26.7 86 +45 +45 опасность
перегрева
1008.3 1007.7
00 24.04 штиль 0 4000 м 4/3 600 м
[Sc diur, vesp Ci fib]
+29.0 +26.8 88 +45 +45 опасность
перегрева
1008.4 1007.8
06 24.04 ЮВ 2 10 км 3/1 600 м
[Sc diur, vesp Ci fib]
+36.4 +27.1 59 +54 +73 опасность
перегрева
1011.1 1010.5
09 24.04 ЮВ 4 10 км 3/1 600 м
[Sc diur, vesp Ci fib]
+35.4 +25.3 56 +49 +58 опасность
перегрева
1007.0 1006.4

 

Местоположение метеостанции Thondi (Tamil Nadu, Индия): широта 9.73 долгота 79.03 высота над уровнем моря 5 м.

В архиве по умолчанию представлена погода в Thondi за последнюю неделю. Архивные данные за месяц целиком и за предыдущие месяцы, начиная с января 2011 года, Вы можете получить, выбрав интересующий диапазон дат из раскрывающегося списка и нажав кнопку "Ввод!".


*Определитесь, кто Вы:
робот инопланетянин человек

Внимание! Время в таблицах - всемирное. Для получения местного времени необходимо прибавить поправку, которая в Thondi равна 5.5 ч.

Смотрите также архив погоды в соседних городах и на ближайших метеорологических станциях:

Погода в Pamban (Tamil Nadu, Индия) (54 км)
Погода в Adiramapattinam (Tamil Nadu, Индия) (77 км)
Погода в Kudimiamalai (Tamil Nadu, Индия) (84 км)
Погода в Madurai (Tamil Nadu, Индия) (105 км)
Погода в Kovilangulam (Tamil Nadu, Индия) (106 км)
Погода в Jaffna (Шри Ланка) (109 км)
Погода в Thanjavur (Tamil Nadu, Индия) (117 км)
Погода в Tiruchirapalli (Tamil Nadu, Индия) (121 км)
Погода в Mannar (Шри Ланка) (128 км)
Погода в Tuticorin New Port (Tamil Nadu, Индия) (143 км)

Пояснения к столбцам:

Ветер - указаны скорость ветра в м/с - средняя за 10 мин, порывы в срок и между сроками (в фигурных скобках) и направление, откуда дует ветер: С - северный, СВ - северо-восточный, В - восточный, ЮВ - юго-восточный, Ю - южный, ЮЗ - юго-западный, З - западный, СЗ - северо-западный.
Видимость - горизонтальная дальность видимости в метрах или километрах. При видимости от 1 до 10 км при отсутствии осадков обычно наблюдается дымка, при ухудшении видимости до 1 км и менее - туман. В сухую погоду видимость может ухудшаться дымом, пылью или мглою.
Явления - указаны атмосферные явления, наблюдавшиеся в срок или в последний час перед сроком; фигурными скобками обозначены явления, наблюдавшиеся между сроками (за 1-3 часа до срока); квадратными скобками обозначены град или гололедные отложения с указанием их диаметра в мм.
Облачность - указаны через наклонную черту общая и нижняя облачность в баллах и высота нижней границы облаков в метрах; квадратными скобками обозначены формы облаков: Ci - перистые, Cs - перисто-слоистые, Cc - перисто-кучевые, Ac - высококучевые, As - высокослоистые, Sc - слоисто-кучевые, Ns - слоисто-дождевые, Cu - кучевые, Cb - кучево-дождевые. Подробнее классификацию облаков см. в Атласе облаков (PDF).
T - Температура воздуха - температура, измеренная на высоте 2 м над землей.
Td - Температура точки росы - температура, при понижении до которой содержащийся в воздухе водяной пар достигнет насыщения.
f - Относительная влажность воздуха - влажноcть воздуха, измеренная на высоте 2 м над землей.
Te - Эффективная температура - температура, которую ощущает одетый по сезону человек в тени. Характеристика душности погоды. При расчете учитывается влияние влажности воздуха и скорости ветра на теплоощущения человека.
Tes - Эффективная температура на солнце - температура, которую ощущает человек, с поправкой на солнечный нагрев. Характеристика знойности погоды. Зависит от высоты солнца над горизонтом, облачности и скорости ветра. Ночью, в пасмурную погоду, а также при ветре 12 м/с и более поправка равна нулю.
P - Атмосферное давление - приведенное к уровню моря атмосферное давление.
Po - Атмосферное давление - измеренное на уровне метеостанции атмосферное давление.
Tmin - Минимальная температура - минимум температуры воздуха на высоте 2 м над землей.
Tmax - Максимальная температура - максимум температуры воздуха на высоте 2 м над землей.
R - Количество осадков - Количество выпавших осадков за период времени, мм. При наведении курсора мыши на число - период времени, за который выпало указанное количество осадков.
R24 - Количество осадков - Количество выпавших осадков за 24 часа, мм.
S - Снежный покров - Высота снежного покрова, см. При наведении курсора мыши на число - состояние снежного покрова и степень покрытия местности в баллах.